Fairfield, PA

5:33 AM EST on December 09, 2016 (GMT -0500)
Fountain Dale

Weather History for KRYT - April, 2013

Change the Weather History Date:

Friday, April 12, 2013

  Actual Average (KHGR) Record (KHGR)
Temperature  
Mean Temperature 52 °F -  
Max Temperature 54 °F 60 °F 76 °F (2008)
Min Temperature 48 °F 40 °F 33 °F (2009)
Degree Days  
Heating Degree Days 14    
Growing Degree Days 2 (Base 50)    
Moisture  
Dew Point 49 °F    
Average Humidity 91    
Maximum Humidity 100    
Minimum Humidity 77    
Precipitation  
Precipitation 0.50 in - - ()
Sea Level Pressure  
Sea Level Pressure 29.69 in    
Wind  
Wind Speed 3 mph (NE)    
Max Wind Speed 8 mph    
Max Gust Speed -    
Visibility 3 miles    
Events Fog , Rain , Thunderstorm    
Averages and records for this station are not official NWS values.
T = Trace of Precipitation, MM = Missing Value Source: NWS Daily Summary

Daily Weather History Graph

Daily Weather History Graph

Search for Another Location

Airport or City:

Trip Planner

Search our weather history database for the weather conditions in past years. The results will help you decide how hot, cold, wet, or windy it might be!

Date:

Astronomy

Apr. 12, 2013 Rise Set
Actual Time 6:36 AM EDT 7:45 PM EDT
Civil Twilight 6:08 AM EDT 8:12 PM EDT
Nautical Twilight 5:35 AM EDT 8:46 PM EDT
Astronomical Twilight 5:01 AM EDT 9:20 PM EDT
Moon 7:45 AM EDT (4/12) 10:13 PM EDT (4/12)
Length of Visible Light 14h 04m
Length of Day
13h 08m
Waxing Crescent, 5% of the Moon is Illuminated
Apr 12
Waxing Crescent
Apr 18
First Quarter
Apr 25
Full
May 2
Last Quarter
May 9
New

Hourly Weather History & Observations

Time (EDT) Temp. Dew Point Humidity Pressure Visibility Wind Dir Wind Speed Gust Speed Precip Events Conditions
12:14 AM 55.4 °F 48.2 °F 77% 29.82 in 10.0 mi Calm Calm - N/A   Overcast
12:53 AM 53.1 °F 48.9 °F 86% 29.80 in 9.0 mi Variable 4.6 mph - N/A   Overcast
1:53 AM 53.1 °F 50.0 °F 89% 29.78 in 4.0 mi Calm Calm - N/A   Overcast
2:53 AM 53.1 °F 50.0 °F 89% 29.76 in 3.0 mi Calm Calm - N/A   Overcast
3:03 AM 51.8 °F 50.0 °F 94% 29.78 in 2.5 mi Variable 3.5 mph - N/A   Overcast
3:34 AM 51.8 °F 48.2 °F 88% 29.76 in 1.5 mi Variable 5.8 mph - N/A   Overcast
3:53 AM 51.1 °F 48.9 °F 92% 29.73 in 1.2 mi Variable 3.5 mph - N/A   Overcast
4:51 AM 51.8 °F 48.2 °F 88% 29.73 in 0.5 mi Calm Calm - 0.01 in Fog Fog
4:53 AM 51.1 °F 48.9 °F 92% 29.70 in 0.5 mi Calm Calm - 0.01 in Fog Fog
5:38 AM 48.2 °F 48.2 °F 100% 29.70 in 1.0 mi Calm Calm - 0.03 in Rain Light Rain
5:53 AM 48.9 °F 48.0 °F 97% 29.68 in 1.0 mi West 4.6 mph - 0.05 in Rain , Thunderstorm Light Thunderstorms and Rain
6:09 AM 48.2 °F 46.4 °F 93% 29.69 in 2.5 mi NNE 3.5 mph - 0.01 in Rain Light Rain
6:53 AM 48.9 °F 46.9 °F 93% 29.67 in 3.0 mi Variable 4.6 mph - 0.08 in Rain Light Rain
7:04 AM 48.2 °F 46.4 °F 93% 29.69 in 2.5 mi Calm Calm - 0.02 in Rain , Thunderstorm Light Thunderstorms and Rain
7:17 AM 48.2 °F 46.4 °F 93% 29.68 in 1.2 mi Calm Calm - 0.11 in Rain Rain
7:36 AM 50.0 °F 48.2 °F 94% 29.72 in 3.0 mi Calm Calm - 0.21 in Rain Light Rain
7:43 AM 50.0 °F 48.2 °F 94% 29.72 in 5.0 mi Calm Calm - 0.22 in Rain Light Rain
7:53 AM 50.0 °F 46.9 °F 89% 29.71 in 4.0 mi Calm Calm - 0.24 in Rain Light Rain
8:53 AM 50.0 °F 48.0 °F 93% 29.69 in 4.0 mi Variable 3.5 mph - 0.10 in Rain Light Rain
9:41 AM 50.0 °F 48.2 °F 94% 29.69 in 9.0 mi Variable 3.5 mph - 0.00 in   Overcast
9:53 AM 50.0 °F 48.0 °F 93% 29.68 in 3.0 mi Calm Calm - 0.00 in   Overcast
10:53 AM 51.1 °F 48.0 °F 89% 29.68 in 10.0 mi Calm Calm - N/A   Overcast
11:53 AM 52.0 °F 48.9 °F 89% 29.68 in 6.0 mi NE 6.9 mph - N/A   Overcast
12:07 PM 51.8 °F 48.2 °F 88% 29.68 in 5.0 mi NNE 5.8 mph - N/A   Overcast
12:27 PM 51.8 °F 48.2 °F 88% 29.68 in 2.5 mi NNE 4.6 mph - N/A   Overcast
12:44 PM 51.8 °F 48.2 °F 88% 29.67 in 1.5 mi NE 4.6 mph - N/A   Overcast
12:53 PM 52.0 °F 48.9 °F 89% 29.67 in 1.2 mi NE 4.6 mph - N/A   Overcast
1:53 PM 52.0 °F 50.0 °F 93% 29.65 in 1.2 mi NNE 6.9 mph - N/A   Overcast
2:23 PM 53.6 °F 50.0 °F 88% 29.64 in 2.0 mi NE 4.6 mph - N/A   Overcast
2:53 PM 53.1 °F 50.0 °F 89% 29.63 in 1.8 mi NE 5.8 mph - N/A   Overcast
3:53 PM 54.0 °F 50.0 °F 86% 29.62 in 2.0 mi NE 6.9 mph - N/A   Overcast
4:16 PM 53.6 °F 51.8 °F 94% 29.63 in 3.0 mi ENE 5.8 mph - N/A   Overcast
4:24 PM 53.6 °F 51.8 °F 94% 29.62 in 2.0 mi ENE 6.9 mph - N/A   Overcast
4:32 PM 53.6 °F 51.8 °F 94% 29.62 in 1.2 mi NE 5.8 mph - N/A   Overcast
4:53 PM 53.1 °F 51.1 °F 93% 29.63 in 1.2 mi NE 8.1 mph - N/A   Overcast
5:08 PM 53.6 °F 51.8 °F 94% 29.62 in 0.8 mi ENE 4.6 mph - N/A   Overcast
5:37 PM 51.8 °F 50.0 °F 94% 29.63 in 0.2 mi Calm Calm - 0.01 in Fog , Rain Light Rain
5:46 PM 51.8 °F 50.0 °F 94% 29.63 in 0.5 mi Variable 4.6 mph - 0.01 in Fog , Rain Light Rain
5:53 PM 52.0 °F 50.0 °F 93% 29.63 in 0.5 mi ENE 6.9 mph - 0.01 in Fog , Rain Light Rain
6:28 PM 51.8 °F 48.2 °F 88% 29.64 in 0.5 mi Variable 4.6 mph - 0.01 in Fog Fog
6:39 PM 51.8 °F 50.0 °F 94% 29.64 in 0.2 mi ENE 5.8 mph - 0.01 in Fog Fog
6:53 PM 51.1 °F 48.9 °F 92% 29.65 in 0.2 mi ENE 4.6 mph - 0.01 in Fog Fog
7:53 PM 50.0 °F 48.9 °F 96% 29.66 in 0.2 mi Variable 3.5 mph - N/A Fog Fog
8:53 PM 50.0 °F 48.0 °F 93% 29.69 in 0.2 mi Calm Calm - N/A Fog Fog
9:20 PM 50.0 °F 48.2 °F 94% 29.69 in 0.5 mi NE 3.5 mph - N/A Fog Fog
9:53 PM 50.0 °F 48.0 °F 93% 29.73 in 0.5 mi Calm Calm - N/A Fog Fog
10:51 PM 51.8 °F 48.2 °F 88% 29.75 in 2.0 mi North 6.9 mph - N/A   Overcast
11:22 PM 48.2 °F 44.6 °F 87% 29.77 in 10.0 mi Variable 4.6 mph - N/A   Mostly Cloudy
11:53 PM 50.0 °F 44.1 °F 80% 29.79 in 8.0 mi West 5.8 mph - N/A   Scattered Clouds